Regional Weather Roundup
Issued by NWS

Home | Current Version | Previous Version | Text Only | Print | Product List | Glossary Off
Versions: 1 2 3 4 5 6 7 8 9 10 11 12 13 14 15 16 17 18 19 20 21 22 23 24 25 26 27 28 29 30 31 32 33 34 35 36 37 38 39 40 41 42 43 44 45 46 47 48 49 50

000
ASUS43 KDTX 200601
RWRMI
MICHIGAN HOURLY REGIONAL WEATHER ROUNDUP
NATIONAL WEATHER SERVICE DETROIT/PONTIAC MI
100 AM EST FRI JAN 20 2017

NOTE: "FAIR" INDICATES FEW OR NO CLOUDS BELOW 12,000 FEET WITH NO
SIGNIFICANT WEATHER AND/OR OBSTRUCTION TO VISIBILITY.

MIZ047>049-052>055-059>063-066>070-074>076-081>083-200700-
SOUTHEAST LOWER MICHIGAN

CITY           SKY/WX    TMP DP  RH WIND       PRES   REMARKS
ADRIAN         CLOUDY    33  33 100 E8        29.83F FOG     WCI  26
6HR MIN TEMP:  33; 6HR MAX TEMP:  35;

ALMA           PTCLDY    33  32  98 E5        29.84F FOG     WCI  28
ANN ARBOR      FOG       34  34 100 E7        29.82F VSB 3/4 WCI  28
BAD AXE        FOG       31  31 100 S5        29.88F VSB 1/2 WCI  26
6HR MIN TEMP:  31; 6HR MAX TEMP:  32;

CARO           CLOUDY    31  31 100 SE5       29.85F FOG     WCI  27
DETROIT CITY   FOG       32  32 100 E7        29.87F VSB 1/4 WCI  26
DETROIT        FOG       34  33  96 E7        29.85F VSB 1/4 WCI  28
6HR MIN TEMP:  34; 6HR MAX TEMP:  36;

FLINT          MOCLDY    31  30  96 SE3       29.84F FOG
6HR MIN TEMP:  30; 6HR MAX TEMP:  36;

GROSSE ILE     FOG       32  32 100 E6        29.84F VSB 1/2 WCI  26
6HR MIN TEMP:  32; 6HR MAX TEMP:  35;

HILLSDALE      CLOUDY    34  34 100 E12       29.78F FOG     WCI  25
HOWELL         FOG       33  32  96 E7        29.82F VSB 1/2 WCI  27
6HR MIN TEMP:  33; 6HR MAX TEMP:  34;


CITY           SKY/WX    TMP DP  RH WIND       PRES   REMARKS
JACKSON        CLOUDY    35  33  92 SE8       29.80F FOG     WCI  29
6HR MIN TEMP:  34; 6HR MAX TEMP:  35;

LAMBERTVILLE   FOG       34  32  94 E7        29.83F VSB 1   WCI  28
6HR MIN TEMP:  34; 6HR MAX TEMP:  38;

LANSING        CLOUDY    34  32  92 SE5       29.82F FOG     WCI  30
6HR MIN TEMP:  34; 6HR MAX TEMP:  37;

LAPEER         FOG       32  32 100 CALM      29.85F VSB 1/4
6HR MIN TEMP:  32; 6HR MAX TEMP:  34;

MASON          CLOUDY    33  33  99 E3        29.81F FOG
MONROE         CLOUDY    32  32 100 E5        29.84F FOG     WCI  28
MT. CLEMENS    FOG       32  32 100 E3        29.85F VSB 1
6HR MIN TEMP:  32; 6HR MAX TEMP:  33;

PONTIAC        FOG       32  30  92 SE6       29.83F VSB 1/4 WCI  26
6HR MIN TEMP:  31; 6HR MAX TEMP:  35;

PORT HOPE        N/A     32  31  96 SE8       29.87F WCI  25
6HR MIN TEMP:  31; 6HR MAX TEMP:  33;

PORT HURON     FOG       32  32 100 SE3       29.88F VSB 1/4
TRI CITIES     PTCLDY    32  32 100 E6        29.86F FOG     WCI  26
6HR MIN TEMP:  31; 6HR MAX TEMP:  34;

MIDLAND        FAIR      32  31  96 E5        29.85F FOG     WCI  28
6HR MIN TEMP:  31; 6HR MAX TEMP:  33;

TROY           FOG       33  32  96 E7        29.87F VSB 1/2 WCI  27
SAGINAW HB     PTCLDY    32  30  93 E5        29.85F FOG     WCI  27
$$
MIZ043>046-050>051-056>058-064>065-071>073-077>080-200700-
SOUTHWEST LOWER MICHIGAN

CITY           SKY/WX    TMP DP  RH WIND       PRES   REMARKS
BATTLE CREEK   LGT RAIN  36  34  92 E9        29.77F FOG     WCI  29
6HR MIN TEMP:  35; 6HR MAX TEMP:  38; 6HR PCP: TRACE;

BENTON HARBOR  RAIN      38  36  92 E8        29.73F FOG     WCI  32
6HR MIN TEMP:  38; 6HR MAX TEMP:  40; 6HR PCP:  0.17;

BIG RAPIDS     CLOUDY    33  32  94 E3        29.81F FOG
6HR MIN TEMP:  32; 6HR MAX TEMP:  36;

COLDWATER      LGT RAIN  37  37 100 E9        29.77F WCI  31
6HR MIN TEMP:  36; 6HR MAX TEMP:  37;

FREMONT        CLOUDY    35  33  94 E6        29.78F WCI  30
HOLLAND        LGT RAIN  37  34  89 E6        29.77F WCI  32
6HR MIN TEMP:  36; 6HR MAX TEMP:  38; 6HR PCP:  0.01;

GRAND RAPIDS   CLOUDY    35  32  88 E10       29.78F WCI  27
6HR MIN TEMP:  35; 6HR MAX TEMP:  37;

IONIA          CLOUDY    33  32  96 E6        29.80F FOG     WCI  28
6HR MIN TEMP:  33; 6HR MAX TEMP:  35;

KALAMAZOO      LGT RAIN  37  34  89 SE5       29.76F FOG     WCI  33
6HR MIN TEMP:  37; 6HR MAX TEMP:  38; 6HR PCP: TRACE;

LUDINGTON      CLOUDY    34  33  99 E5        29.79F FOG     WCI  30
6HR MIN TEMP:  31; 6HR MAX TEMP:  34;

MARSHALL       CLOUDY    36  35  96 E7        29.77F FOG     WCI  30
6HR MIN TEMP:  34; 6HR MAX TEMP:  36;

MOUNT PLEASANT CLOUDY    32  32  99 CALM      29.83F FOG
6HR MIN TEMP:  30; 6HR MAX TEMP:  34;

MUSKEGON       CLOUDY    38  34  85 E3        29.77F
6HR MIN TEMP:  35; 6HR MAX TEMP:  39;

SOUTH HAVEN    LGT RAIN  37  36  96 E7        29.75F WCI  31
$$
MIZ016>042-200700-
NORTHERN LOWER MICHIGAN

CITY           SKY/WX    TMP DP  RH WIND       PRES   REMARKS
ALPENA         CLOUDY    33  32  96 S5        29.88F FOG     WCI  29
6HR MIN TEMP:  33; 6HR MAX TEMP:  35;

BEAVER ISLAND  CLOUDY    34  34  99 CALM      29.84F FOG
6HR MIN TEMP:  33; 6HR MAX TEMP:  35;

BELLAIRE       CLOUDY    29  29  99 CALM      29.84F FOG
6HR MIN TEMP:  29; 6HR MAX TEMP:  33;

CADILLAC       CLOUDY    33  32  96 SE5       29.81F FOG     WCI  28
CHARLEVOIX     CLOUDY    32  32 100 E3        29.87F FOG
6HR MIN TEMP:  31; 6HR MAX TEMP:  36;

FRANKFORT      CLOUDY    32  32 100 CALM      29.82F FOG
GAYLORD        FOG       33  30  88 CALM      29.83F VSB 1/4
6HR MIN TEMP:  33; 6HR MAX TEMP:  35;

GRAYLING       FOG       32  32 100 E5        29.84F VSB 1/4 WCI  27
HARBOR SPRINGS CLOUDY    33  33  98 E6        29.84F FOG     WCI  28
HOUGHTON LAKE  FOG       32  31  96 E3        29.84F VSB 1/4
6HR MIN TEMP:  31; 6HR MAX TEMP:  33;

MANISTEE       PTCLDY    32  31  96 E5        29.81F FOG     WCI  27
OSCODA         CLOUDY    33  32  96 CALM      29.88F FOG
6HR MIN TEMP:  33; 6HR MAX TEMP:  35;

PELLSTON       CLOUDY    34  32  92 CALM      29.85F FOG
6HR MIN TEMP:  33; 6HR MAX TEMP:  35;

ROGERS CITY    CLOUDY    34  32  94 SE5       29.87F FOG     WCI  30
TRAVERSE CITY  PTCLDY    33  31  92 SE3       29.82F FOG
6HR MIN TEMP:  31; 6HR MAX TEMP:  35;

$$
MIZ007>008-015-200700-
EASTERN UPPER MICHIGAN

CITY           SKY/WX    TMP DP  RH WIND       PRES   REMARKS
KINROSS        MIX PCPN  32  32 100 SE7       29.84F VSB 1/2 WCI  26
6HR MIN TEMP:  32; 6HR MAX TEMP:  33; 6HR PCP: TRACE;

MACKINAC ISLAN CLOUDY    33  33 100 CALM      29.85S FOG
6HR MIN TEMP:  33; 6HR MAX TEMP:  33;

NEWBERRY       FOG       33  32  98 S7        29.82F VSB 1/2 WCI  26
6HR MIN TEMP:  33; 6HR MAX TEMP:  34;

S. S. MARIE    FOG       34  33  96 E5        29.84F VSB 1/2 WCI  30
6HR MIN TEMP:  33; 6HR MAX TEMP:  34;

MUNISING         N/A     31  31 100 S6        29.79F WCI  25
6HR MIN TEMP:  31; 6HR MAX TEMP:  33;

$$
MIZ004>006-011>014-085-200700-
CENTRAL UPPER MICHIGAN

CITY           SKY/WX    TMP DP  RH WIND       PRES   REMARKS
MANISTIQUE     FOG       33  33  97 S5        29.82S VSB 1/4 WCI  29
6HR MIN TEMP:  32; 6HR MAX TEMP:  33;

ESCANABA       FOG       32  31  96 S3        29.81F VSB 1/4
6HR MIN TEMP:  31; 6HR MAX TEMP:  32;

SAWYER-GWINN   FOG       30  29  99 S10       29.77F VSB 1/2 WCI  21
6HR MIN TEMP:  30; 6HR MAX TEMP:  32;

$$
MIZ001>003-009>011-084-200700-
WESTERN UPPER MICHIGAN

CITY           SKY/WX    TMP DP  RH WIND       PRES   REMARKS
IRON MOUNTAIN  FOG       30  28  92 CALM      29.76F VSB 3/4
6HR MIN TEMP:  30; 6HR MAX TEMP:  32;

HOUGHTON       CLOUDY    32  29  88 W3        29.72S
6HR MIN TEMP:  25; 6HR MAX TEMP:  33;

COPPER HARBOR    N/A     35  33  92 VRB5      29.72F WCI  31
6HR MIN TEMP:  30; 6HR MAX TEMP:  36;

IRONWOOD       CLOUDY    30  27  88 E5        29.73F WCI  25
6HR MIN TEMP:  30; 6HR MAX TEMP:  45;

$$

ABBREVIATIONS USED IN REMARKS
   TC - TEMPERATURE IN CELSIUS
  WCI - WIND CHILL INDEX
   HX - HEAT INDEX
  VSB - VISIBILITY




USA.gov is the U.S. government's official web portal to all federal, state and local government web resources and services.